Location: Newark
(40.3820°N, 3.6624°W)
Time: 18:05:59
(UTC+00:00)

N. Korean satellite - Pass Details

Date: 25 November 2019
Orbit: 456 x 506 km, 97.2° (Epoch: 07 December)

Event Time Altitude Azimuth Distance (km) Brightness Sun altitude
Rises 05:10:06 0° 31° (NNE) 2,593 10.5 -22.8°
Reaches altitude 10° 05:12:52 10° 53° (NE) 1,695 9.9 -22.3°
Maximum altitude 05:15:10 16° 92° (E) 1,358 9.8 -21.8°
Drops below altitude 10° 05:17:25 10° 132° (SE) 1,668 10.1 -21.4°
Sets 05:20:06 0° 155° (SSE) 2,530 10.7 -20.9°
